contact:dominique.lefevre@mio.osupytheas.fr, maurice.libes@osupytheas.fr, didier.mallarino@osupytheas.fr
Project:EMSO http://www.emso-fr.org/EMSO-France
Depth: 2436.0 m
Title:EMSO Ligure Ouest : Data MII capteur CSTAR
DateTime,Latitude,Longitude,Instrument_Serial,Reference_Counts,Signal_Counts,Corrected_Signal_raw_counts,Calculated_Beam_c_inverse_meters,Internal_thermistor_counts
DateTime,Latitude,Longitude,Instrument_Serial,Reference_Counts,Signal_Counts,Corrected_Signal_raw_counts,Calculated_Beam_c_inverse_meters,Internal_thermistor_counts
2023-04-30T00:02:04,42.805,6.029,CST-1368DR,4312,4728,11641,01.175,551
2023-04-30T00:05:06,42.805,6.029,CST-1368DR,4312,4729,11644,01.174,552
2023-04-30T00:08:08,42.805,6.029,CST-1368DR,4312,4726,11637,01.176,552
2023-04-30T00:11:09,42.805,6.029,CST-1368DR,4312,4728,11642,01.175,551
2023-04-30T00:14:11,42.805,6.029,CST-1368DR,4312,4726,11637,01.176,551
2023-04-30T00:17:12,42.805,6.029,CST-1368DR,4312,4728,11643,01.174,551
2023-04-30T00:20:14,42.805,6.029,CST-1368DR,4312,4728,11643,01.174,551
2023-04-30T00:23:15,42.805,6.029,CST-1368DR,4312,4725,11635,01.177,552
2023-04-30T00:26:17,42.805,6.029,CST-1368DR,4312,4727,11639,01.176,552
2023-04-30T00:29:19,42.805,6.029,CST-1368DR,4312,4727,11639,01.176,551
2023-04-30T00:32:20,42.805,6.029,CST-1368DR,4312,4728,11641,01.175,552
2023-04-30T00:35:22,42.805,6.029,CST-1368DR,4312,4725,11635,01.177,552
2023-04-30T00:38:23,42.805,6.029,CST-1368DR,4312,4727,11639,01.176,552
2023-04-30T00:41:25,42.805,6.029,CST-1368DR,4312,4729,11644,01.174,552
2023-04-30T00:44:27,42.805,6.029,CST-1368DR,4312,4727,11641,01.175,551
2023-04-30T00:47:28,42.805,6.029,CST-1368DR,4312,4727,11639,01.176,551
2023-04-30T00:50:30,42.805,6.029,CST-1368DR,4312,4727,11639,01.176,552
2023-04-30T00:53:31,42.805,6.029,CST-1368DR,4312,4727,11641,01.175,551
2023-04-30T00:56:33,42.805,6.029,CST-1368DR,4312,4727,11640,01.175,551
2023-04-30T00:59:34,42.805,6.029,CST-1368DR,4312,4727,11639,01.176,552
2023-04-30T01:02:36,42.805,6.029,CST-1368DR,4312,4723,11629,01.179,551
2023-04-30T01:05:38,42.805,6.029,CST-1368DR,4312,4727,11639,01.176,551
2023-04-30T01:08:39,42.805,6.029,CST-1368DR,4312,4729,11645,01.174,551
2023-04-30T01:11:41,42.805,6.029,CST-1368DR,4312,4726,11637,01.176,552
2023-04-30T01:14:42,42.805,6.029,CST-1368DR,4312,4729,11645,01.174,552
2023-04-30T01:17:44,42.805,6.029,CST-1368DR,4312,4730,11646,01.173,552
2023-04-30T01:20:45,42.805,6.029,CST-1368DR,4312,4730,11647,01.173,551
2023-04-30T01:23:47,42.805,6.029,CST-1368DR,4312,4729,11645,01.174,551
2023-04-30T01:26:49,42.805,6.029,CST-1368DR,4312,4729,11645,01.174,551
2023-04-30T01:29:50,42.805,6.029,CST-1368DR,4312,4726,11636,01.177,551
2023-04-30T01:32:52,42.805,6.029,CST-1368DR,4312,4730,11646,01.173,551
2023-04-30T01:35:53,42.805,6.029,CST-1368DR,4312,4730,11648,01.173,552
2023-04-30T01:38:55,42.805,6.029,CST-1368DR,4312,4729,11645,01.174,551
2023-04-30T01:41:57,42.805,6.029,CST-1368DR,4312,4727,11641,01.175,552
2023-04-30T01:44:58,42.805,6.029,CST-1368DR,4312,4732,11653,01.171,552
2023-04-30T01:48:00,42.805,6.029,CST-1368DR,4312,4732,11652,01.171,552
2023-04-30T01:51:01,42.805,6.029,CST-1368DR,4312,4728,11641,01.175,552
2023-04-30T01:54:03,42.805,6.029,CST-1368DR,4312,4729,11645,01.174,551
2023-04-30T01:57:04,42.805,6.029,CST-1368DR,4312,4733,11654,01.171,552
2023-04-30T02:00:06,42.805,6.029,CST-1368DR,4312,4732,11651,01.172,552
2023-04-30T02:03:08,42.805,6.029,CST-1368DR,4312,4727,11639,01.176,551
2023-04-30T02:06:09,42.805,6.029,CST-1368DR,4312,4729,11645,01.174,552
2023-04-30T02:09:11,42.805,6.029,CST-1368DR,4312,4732,11651,01.172,552
2023-04-30T02:12:12,42.805,6.029,CST-1368DR,4312,4730,11646,01.173,551
2023-04-30T02:15:14,42.805,6.029,CST-1368DR,4312,4730,11646,01.173,551
2023-04-30T02:18:15,42.805,6.029,CST-1368DR,4312,4731,11650,01.172,551
2023-04-30T02:21:17,42.805,6.029,CST-1368DR,4312,4731,11649,01.172,552
2023-04-30T02:24:19,42.805,6.029,CST-1368DR,4312,4731,11649,01.172,552
2023-04-30T02:27:20,42.805,6.029,CST-1368DR,4312,4730,11647,01.173,552
2023-04-30T02:30:22,42.805,6.029,CST-1368DR,4312,4729,11644,01.174,552
2023-04-30T02:33:23,42.805,6.029,CST-1368DR,4312,4731,11649,01.172,552
2023-04-30T02:36:25,42.805,6.029,CST-1368DR,4312,4728,11643,01.174,551
2023-04-30T02:39:27,42.805,6.029,CST-1368DR,4312,4731,11649,01.172,552
2023-04-30T02:42:28,42.805,6.029,CST-1368DR,4312,4733,11654,01.171,552
2023-04-30T02:45:30,42.805,6.029,CST-1368DR,4312,4732,11652,01.171,551
2023-04-30T02:48:31,42.805,6.029,CST-1368DR,4312,4731,11649,01.172,552
2023-04-30T02:51:33,42.805,6.029,CST-1368DR,4312,4730,11647,01.173,552
2023-04-30T02:54:34,42.805,6.029,CST-1368DR,4312,4726,11637,01.176,551
2023-04-30T02:57:36,42.805,6.029,CST-1368DR,4312,4731,11649,01.172,551
2023-04-30T03:00:38,42.805,6.029,CST-1368DR,4312,4729,11645,01.174,552
2023-04-30T03:03:39,42.805,6.029,CST-1368DR,4312,4731,11649,01.172,552
2023-04-30T03:06:41,42.805,6.029,CST-1368DR,4312,4729,11645,01.174,552
2023-04-30T03:09:42,42.805,6.029,CST-1368DR,4312,4729,11644,01.174,551
2023-04-30T03:12:44,42.805,6.029,CST-1368DR,4312,4730,11647,01.173,552
2023-04-30T03:15:45,42.805,6.029,CST-1368DR,4312,4730,11648,01.173,551
2023-04-30T03:18:47,42.805,6.029,CST-1368DR,4312,4726,11636,01.177,551
2023-04-30T03:21:49,42.805,6.029,CST-1368DR,4312,4729,11644,01.174,552
2023-04-30T03:24:50,42.805,6.029,CST-1368DR,4312,4729,11644,01.174,552
2023-04-30T03:27:52,42.805,6.029,CST-1368DR,4312,4729,11644,01.174,552
2023-04-30T03:30:53,42.805,6.029,CST-1368DR,4312,4725,11635,01.177,551
2023-04-30T03:33:55,42.805,6.029,CST-1368DR,4312,4728,11643,01.174,552
2023-04-30T03:36:56,42.805,6.029,CST-1368DR,4312,4730,11646,01.173,551
2023-04-30T03:39:58,42.805,6.029,CST-1368DR,4312,4726,11638,01.176,552
2023-04-30T03:43:00,42.805,6.029,CST-1368DR,4312,4724,11632,01.178,552
2023-04-30T03:46:01,42.805,6.029,CST-1368DR,4312,4728,11642,01.175,551
2023-04-30T03:49:03,42.805,6.029,CST-1368DR,4312,4723,11630,01.179,552
2023-04-30T03:52:04,42.805,6.029,CST-1368DR,4312,4730,11646,01.173,551
2023-04-30T03:55:06,42.805,6.029,CST-1368DR,4312,4728,11641,01.175,552
2023-04-30T03:58:08,42.805,6.029,CST-1368DR,4312,4728,11642,01.175,551
2023-04-30T04:01:09,42.805,6.029,CST-1368DR,4312,4728,11643,01.174,551
2023-04-30T04:04:11,42.805,6.029,CST-1368DR,4312,4729,11644,01.174,552
2023-04-30T04:07:12,42.805,6.029,CST-1368DR,4312,4727,11641,01.175,551
2023-04-30T04:10:14,42.805,6.029,CST-1368DR,4312,4729,11644,01.174,552
2023-04-30T04:13:15,42.805,6.029,CST-1368DR,4312,4728,11641,01.175,551
2023-04-30T04:16:17,42.805,6.029,CST-1368DR,4312,4730,11647,01.173,551
2023-04-30T04:19:19,42.805,6.029,CST-1368DR,4312,4730,11647,01.173,551
2023-04-30T04:22:20,42.805,6.029,CST-1368DR,4312,4726,11637,01.176,551
2023-04-30T04:25:22,42.805,6.029,CST-1368DR,4312,4731,11650,01.172,551
2023-04-30T04:28:23,42.805,6.029,CST-1368DR,4312,4730,11647,01.173,552
2023-04-30T04:31:25,42.805,6.029,CST-1368DR,4312,4730,11647,01.173,552
2023-04-30T04:34:27,42.805,6.029,CST-1368DR,4312,4731,11649,01.172,552
2023-04-30T04:37:28,42.805,6.029,CST-1368DR,4312,4731,11649,01.172,552
2023-04-30T04:40:30,42.805,6.029,CST-1368DR,4312,4731,11649,01.172,551
2023-04-30T04:43:31,42.805,6.029,CST-1368DR,4312,4731,11649,01.172,552
2023-04-30T04:46:33,42.805,6.029,CST-1368DR,4312,4729,11644,01.174,551
2023-04-30T04:49:34,42.805,6.029,CST-1368DR,4312,4729,11645,01.174,551
2023-04-30T04:52:36,42.805,6.029,CST-1368DR,4312,4730,11647,01.173,551
2023-04-30T04:55:38,42.805,6.029,CST-1368DR,4312,4729,11644,01.174,552
2023-04-30T04:58:39,42.805,6.029,CST-1368DR,4312,4728,11642,01.175,552
2023-04-30T05:01:41,42.805,6.029,CST-1368DR,4312,4727,11641,01.175,552
2023-04-30T05:04:42,42.805,6.029,CST-1368DR,4312,4729,11645,01.174,551
2023-04-30T05:07:44,42.805,6.029,CST-1368DR,4312,4727,11641,01.175,551
2023-04-30T05:10:46,42.805,6.029,CST-1368DR,4312,4726,11637,01.176,552
2023-04-30T05:13:47,42.805,6.029,CST-1368DR,4312,4727,11641,01.175,552
2023-04-30T05:16:49,42.805,6.029,CST-1368DR,4312,4725,11636,01.177,551
2023-04-30T05:19:50,42.805,6.029,CST-1368DR,4312,4728,11641,01.175,551
2023-04-30T05:22:52,42.805,6.029,CST-1368DR,4312,4729,11644,01.174,551
2023-04-30T05:25:53,42.805,6.029,CST-1368DR,4312,4729,11645,01.174,552
2023-04-30T05:28:55,42.805,6.029,CST-1368DR,4312,4729,11644,01.174,552
2023-04-30T05:31:57,42.805,6.029,CST-1368DR,4312,4728,11641,01.175,552
2023-04-30T05:34:58,42.805,6.029,CST-1368DR,4312,4727,11639,01.176,551
2023-04-30T05:38:00,42.805,6.029,CST-1368DR,4312,4732,11652,01.171,552
2023-04-30T05:41:01,42.805,6.029,CST-1368DR,4312,4729,11645,01.174,552
2023-04-30T05:44:03,42.805,6.029,CST-1368DR,4312,4726,11638,01.176,552
2023-04-30T05:47:04,42.805,6.029,CST-1368DR,4312,4727,11639,01.176,551
2023-04-30T05:50:06,42.805,6.029,CST-1368DR,4312,4726,11637,01.176,551
2023-04-30T05:53:08,42.805,6.029,CST-1368DR,4312,4729,11644,01.174,551
2023-04-30T05:56:09,42.805,6.029,CST-1368DR,4312,4727,11639,01.176,551
2023-04-30T05:59:11,42.805,6.029,CST-1368DR,4312,4728,11641,01.175,552
2023-04-30T06:02:12,42.805,6.029,CST-1368DR,4312,4728,11641,01.175,551
2023-04-30T06:05:14,42.805,6.029,CST-1368DR,4312,4728,11641,01.175,552
2023-04-30T06:08:16,42.805,6.029,CST-1368DR,4312,4729,11644,01.174,552
2023-04-30T06:11:17,42.805,6.029,CST-1368DR,4312,4729,11644,01.174,551
2023-04-30T06:14:19,42.805,6.029,CST-1368DR,4312,4728,11643,01.174,552
2023-04-30T06:17:20,42.805,6.029,CST-1368DR,4311,4724,11635,01.177,551
2023-04-30T06:20:22,42.805,6.029,CST-1368DR,4312,4729,11645,01.174,551
2023-04-30T06:23:23,42.805,6.029,CST-1368DR,4312,4729,11645,01.174,552
2023-04-30T06:26:25,42.805,6.029,CST-1368DR,4312,4733,11655,01.170,552
2023-04-30T06:29:27,42.805,6.029,CST-1368DR,4312,4729,11644,01.174,551
2023-04-30T06:32:28,42.805,6.029,CST-1368DR,4312,4729,11644,01.174,552
2023-04-30T06:35:30,42.805,6.029,CST-1368DR,4311,4719,11623,01.181,551
2023-04-30T06:38:31,42.805,6.029,CST-1368DR,4312,4727,11641,01.175,552
2023-04-30T06:41:33,42.805,6.029,CST-1368DR,4312,4727,11639,01.176,552
2023-04-30T06:44:34,42.805,6.029,CST-1368DR,4311,4727,11641,01.175,551
2023-04-30T06:47:36,42.805,6.029,CST-1368DR,4312,4730,11646,01.173,551
2023-04-30T06:50:38,42.805,6.029,CST-1368DR,4312,4728,11643,01.174,551
2023-04-30T06:53:39,42.805,6.029,CST-1368DR,4311,4728,11646,01.173,551
2023-04-30T06:56:41,42.805,6.029,CST-1368DR,4312,4730,11647,01.173,551
2023-04-30T06:59:42,42.805,6.029,CST-1368DR,4312,4727,11639,01.176,551
2023-04-30T07:02:44,42.805,6.029,CST-1368DR,4311,4729,11647,01.173,551
2023-04-30T07:05:46,42.805,6.029,CST-1368DR,4312,4729,11644,01.174,552
2023-04-30T07:08:47,42.805,6.029,CST-1368DR,4312,4737,11665,01.167,551
2023-04-30T07:11:49,42.805,6.029,CST-1368DR,4312,4728,11642,01.175,551
2023-04-30T07:14:50,42.805,6.029,CST-1368DR,4312,4730,11646,01.173,551
2023-04-30T07:17:52,42.805,6.029,CST-1368DR,4312,4727,11639,01.176,552
2023-04-30T07:20:53,42.805,6.029,CST-1368DR,4312,4728,11643,01.174,551
2023-04-30T07:23:55,42.805,6.029,CST-1368DR,4311,4728,11644,01.174,552
2023-04-30T07:26:57,42.805,6.029,CST-1368DR,4312,4727,11639,01.176,551
2023-04-30T07:29:58,42.805,6.029,CST-1368DR,4311,4728,11645,01.174,551
2023-04-30T07:33:00,42.805,6.029,CST-1368DR,4311,4728,11644,01.174,551
2023-04-30T07:36:01,42.805,6.029,CST-1368DR,4312,4725,11635,01.177,552
2023-04-30T07:39:03,42.805,6.029,CST-1368DR,4312,4728,11641,01.175,551
2023-04-30T07:42:04,42.805,6.029,CST-1368DR,4312,4727,11640,01.175,551
2023-04-30T07:45:06,42.805,6.029,CST-1368DR,4311,4727,11642,01.175,552
2023-04-30T07:48:08,42.805,6.029,CST-1368DR,4312,4728,11641,01.175,552
2023-04-30T07:51:09,42.805,6.029,CST-1368DR,4311,4727,11642,01.175,552
2023-04-30T07:54:11,42.805,6.029,CST-1368DR,4311,4727,11642,01.175,551
2023-04-30T07:57:12,42.805,6.029,CST-1368DR,4311,4726,11640,01.175,552
2023-04-30T08:00:14,42.805,6.029,CST-1368DR,4311,4725,11638,01.176,551
2023-04-30T08:03:16,42.805,6.029,CST-1368DR,4311,4727,11642,01.175,552
2023-04-30T08:06:17,42.805,6.029,CST-1368DR,4311,4729,11647,01.173,552
2023-04-30T08:09:19,42.805,6.029,CST-1368DR,4311,4727,11643,01.174,551
2023-04-30T08:12:20,42.805,6.029,CST-1368DR,4311,4725,11638,01.176,552
2023-04-30T08:15:22,42.805,6.029,CST-1368DR,4311,4725,11637,01.176,551
2023-04-30T08:18:23,42.805,6.029,CST-1368DR,4311,4728,11645,01.174,552
2023-04-30T08:21:25,42.805,6.029,CST-1368DR,4311,4727,11642,01.175,552
2023-04-30T08:24:27,42.805,6.029,CST-1368DR,4311,4729,11648,01.173,551
2023-04-30T08:27:28,42.805,6.029,CST-1368DR,4311,4727,11641,01.175,551
2023-04-30T08:30:33,42.805,6.029,CST-1368DR,4311,4725,11636,01.177,552
2023-04-30T08:33:34,42.805,6.029,CST-1368DR,4311,4726,11641,01.175,552
2023-04-30T08:36:36,42.805,6.029,CST-1368DR,4311,4725,11637,01.176,551
2023-04-30T08:39:37,42.805,6.029,CST-1368DR,4311,4723,11633,01.178,551
2023-04-30T08:42:39,42.805,6.029,CST-1368DR,4311,4725,11636,01.177,551
2023-04-30T08:45:41,42.805,6.029,CST-1368DR,4311,4722,11630,01.179,552
2023-04-30T08:48:42,42.805,6.029,CST-1368DR,4311,4726,11639,01.176,552
2023-04-30T08:51:44,42.805,6.029,CST-1368DR,4311,4723,11633,01.178,551
2023-04-30T08:54:45,42.805,6.029,CST-1368DR,4311,4725,11636,01.177,552
2023-04-30T08:57:47,42.805,6.029,CST-1368DR,4311,4726,11639,01.176,552
2023-04-30T09:00:48,42.805,6.029,CST-1368DR,4311,4726,11639,01.176,552
2023-04-30T09:03:50,42.805,6.029,CST-1368DR,4311,4725,11637,01.176,551
2023-04-30T09:06:52,42.805,6.029,CST-1368DR,4311,4725,11638,01.176,552
2023-04-30T09:09:53,42.805,6.029,CST-1368DR,4311,4725,11638,01.176,552
2023-04-30T09:12:55,42.805,6.029,CST-1368DR,4311,4725,11636,01.177,552
2023-04-30T09:15:56,42.805,6.029,CST-1368DR,4311,4725,11636,01.177,551
2023-04-30T09:18:58,42.805,6.029,CST-1368DR,4311,4725,11636,01.177,552
2023-04-30T09:22:00,42.805,6.029,CST-1368DR,4311,4726,11639,01.176,551
2023-04-30T09:25:01,42.805,6.029,CST-1368DR,4311,4724,11635,01.177,551
2023-04-30T09:28:03,42.805,6.029,CST-1368DR,4311,4724,11634,01.177,551
2023-04-30T09:31:04,42.805,6.029,CST-1368DR,4311,4722,11630,01.179,552
2023-04-30T09:34:06,42.805,6.029,CST-1368DR,4311,4725,11638,01.176,551
2023-04-30T09:37:07,42.805,6.029,CST-1368DR,4311,4726,11641,01.175,551
2023-04-30T09:40:09,42.805,6.029,CST-1368DR,4311,4724,11634,01.177,551
2023-04-30T09:43:11,42.805,6.029,CST-1368DR,4311,4725,11638,01.176,551
2023-04-30T09:46:12,42.805,6.029,CST-1368DR,4311,4724,11634,01.177,552
2023-04-30T09:49:14,42.805,6.029,CST-1368DR,4311,4726,11640,01.175,551
2023-04-30T09:52:15,42.805,6.029,CST-1368DR,4311,4724,11634,01.177,552
2023-04-30T09:55:17,42.805,6.029,CST-1368DR,4311,4722,11631,01.178,551
2023-04-30T09:58:18,42.805,6.029,CST-1368DR,4311,4724,11634,01.177,551
2023-04-30T10:01:20,42.805,6.029,CST-1368DR,4311,4724,11635,01.177,551
2023-04-30T10:04:22,42.805,6.029,CST-1368DR,4311,4723,11632,01.178,551
2023-04-30T10:07:23,42.805,6.029,CST-1368DR,4311,4722,11630,01.179,552
2023-04-30T10:10:25,42.805,6.029,CST-1368DR,4311,4725,11638,01.176,551
2023-04-30T10:13:26,42.805,6.029,CST-1368DR,4311,4724,11635,01.177,551
2023-04-30T10:16:28,42.805,6.029,CST-1368DR,4311,4725,11636,01.177,551
2023-04-30T10:19:30,42.805,6.029,CST-1368DR,4311,4722,11630,01.179,551
2023-04-30T10:22:31,42.805,6.029,CST-1368DR,4311,4723,11633,01.178,551
2023-04-30T10:25:33,42.805,6.029,CST-1368DR,4311,4723,11631,01.178,551
2023-04-30T10:28:34,42.805,6.029,CST-1368DR,4311,4722,11630,01.179,551
2023-04-30T10:31:36,42.805,6.029,CST-1368DR,4311,4720,11626,01.180,551
2023-04-30T10:34:37,42.805,6.029,CST-1368DR,4311,4722,11630,01.179,552
2023-04-30T10:37:39,42.805,6.029,CST-1368DR,4311,4722,11629,01.179,552
2023-04-30T10:40:41,42.805,6.029,CST-1368DR,4311,4723,11633,01.178,552
2023-04-30T10:43:42,42.805,6.029,CST-1368DR,4311,4723,11633,01.178,551
2023-04-30T10:46:44,42.805,6.029,CST-1368DR,4311,4723,11633,01.178,551
2023-04-30T10:49:45,42.805,6.029,CST-1368DR,4311,4722,11631,01.178,551
2023-04-30T10:52:47,42.805,6.029,CST-1368DR,4311,4723,11631,01.178,551
2023-04-30T10:55:48,42.805,6.029,CST-1368DR,4311,4724,11634,01.177,551
2023-04-30T10:58:50,42.805,6.029,CST-1368DR,4311,4726,11641,01.175,551
2023-04-30T11:01:52,42.805,6.029,CST-1368DR,4311,4721,11626,01.180,552
2023-04-30T11:04:53,42.805,6.029,CST-1368DR,4311,4722,11631,01.178,552
2023-04-30T11:07:55,42.805,6.029,CST-1368DR,4311,4723,11632,01.178,552
2023-04-30T11:10:56,42.805,6.029,CST-1368DR,4311,4726,11639,01.176,552
2023-04-30T11:13:58,42.805,6.029,CST-1368DR,4311,4724,11634,01.177,551
2023-04-30T11:17:00,42.805,6.029,CST-1368DR,4311,4723,11633,01.178,552
2023-04-30T11:20:01,42.805,6.029,CST-1368DR,4311,4724,11634,01.177,552
2023-04-30T11:23:03,42.805,6.029,CST-1368DR,4311,4725,11638,01.176,552
2023-04-30T11:26:04,42.805,6.029,CST-1368DR,4311,4724,11634,01.177,552
2023-04-30T11:29:06,42.805,6.029,CST-1368DR,4311,4723,11633,01.178,552
2023-04-30T11:32:07,42.805,6.029,CST-1368DR,4311,4725,11638,01.176,552
2023-04-30T11:35:09,42.805,6.029,CST-1368DR,4311,4725,11638,01.176,551
2023-04-30T11:38:11,42.805,6.029,CST-1368DR,4311,4725,11636,01.177,552
2023-04-30T11:41:12,42.805,6.029,CST-1368DR,4311,4725,11638,01.176,551
2023-04-30T11:44:14,42.805,6.029,CST-1368DR,4311,4725,11637,01.176,552
2023-04-30T11:47:15,42.805,6.029,CST-1368DR,4311,4726,11639,01.176,551
2023-04-30T11:50:17,42.805,6.029,CST-1368DR,4311,4724,11634,01.177,551
2023-04-30T11:53:19,42.805,6.029,CST-1368DR,4311,4723,11633,01.178,552
2023-04-30T11:56:20,42.805,6.029,CST-1368DR,4311,4726,11640,01.175,552
2023-04-30T11:59:22,42.805,6.029,CST-1368DR,4311,4722,11631,01.178,551
2023-04-30T12:02:23,42.805,6.029,CST-1368DR,4311,4723,11633,01.178,552
2023-04-30T12:05:25,42.805,6.029,CST-1368DR,4311,4722,11630,01.179,551
2023-04-30T12:08:26,42.805,6.029,CST-1368DR,4311,4723,11633,01.178,551
2023-04-30T12:11:28,42.805,6.029,CST-1368DR,4311,4723,11633,01.178,551
2023-04-30T12:14:30,42.805,6.029,CST-1368DR,4311,4726,11639,01.176,552
2023-04-30T12:17:31,42.805,6.029,CST-1368DR,4311,4726,11639,01.176,552
2023-04-30T12:20:33,42.805,6.029,CST-1368DR,4311,4719,11622,01.182,551
2023-04-30T12:23:34,42.805,6.029,CST-1368DR,4311,4722,11631,01.178,552
2023-04-30T12:26:36,42.805,6.029,CST-1368DR,4311,4725,11636,01.177,551
2023-04-30T12:29:37,42.805,6.029,CST-1368DR,4311,4724,11634,01.177,552
2023-04-30T12:32:39,42.805,6.029,CST-1368DR,4311,4719,11623,01.181,552
2023-04-30T12:35:41,42.805,6.029,CST-1368DR,4311,4724,11634,01.177,551
2023-04-30T12:38:42,42.805,6.029,CST-1368DR,4311,4725,11637,01.176,552
2023-04-30T12:41:44,42.805,6.029,CST-1368DR,4311,4721,11627,01.180,552
2023-04-30T12:44:45,42.805,6.029,CST-1368DR,4311,4721,11627,01.180,552
2023-04-30T12:47:47,42.805,6.029,CST-1368DR,4311,4723,11632,01.178,552
2023-04-30T12:50:48,42.805,6.029,CST-1368DR,4311,4722,11631,01.178,552
2023-04-30T12:53:50,42.805,6.029,CST-1368DR,4311,4723,11632,01.178,552
2023-04-30T12:56:52,42.805,6.029,CST-1368DR,4311,4723,11633,01.178,551
2023-04-30T12:59:53,42.805,6.029,CST-1368DR,4311,4723,11633,01.178,552
2023-04-30T13:02:55,42.805,6.029,CST-1368DR,4311,4723,11632,01.178,551
2023-04-30T13:05:56,42.805,6.029,CST-1368DR,4311,4724,11634,01.177,551
2023-04-30T13:08:58,42.805,6.029,CST-1368DR,4311,4723,11633,01.178,552
2023-04-30T13:12:00,42.805,6.029,CST-1368DR,4311,4724,11634,01.177,552
2023-04-30T13:15:01,42.805,6.029,CST-1368DR,4311,4712,11606,01.187,552
2023-04-30T13:18:03,42.805,6.029,CST-1368DR,4311,4724,11634,01.177,552
2023-04-30T13:21:04,42.805,6.029,CST-1368DR,4311,4725,11638,01.176,551
2023-04-30T13:24:06,42.805,6.029,CST-1368DR,4311,4723,11633,01.178,551
2023-04-30T13:27:07,42.805,6.029,CST-1368DR,4311,4722,11629,01.179,552
2023-04-30T13:30:09,42.805,6.029,CST-1368DR,4311,4721,11626,01.180,551
2023-04-30T13:33:11,42.805,6.029,CST-1368DR,4311,4726,11639,01.176,551
2023-04-30T13:36:12,42.805,6.029,CST-1368DR,4311,4723,11633,01.178,551
2023-04-30T13:39:14,42.805,6.029,CST-1368DR,4311,4724,11635,01.177,551
2023-04-30T13:42:15,42.805,6.029,CST-1368DR,4311,4725,11638,01.176,551
2023-04-30T13:45:17,42.805,6.029,CST-1368DR,4311,4724,11634,01.177,552
2023-04-30T13:48:18,42.805,6.029,CST-1368DR,4311,4726,11639,01.176,551
2023-04-30T13:51:20,42.805,6.029,CST-1368DR,4311,4726,11639,01.176,551
2023-04-30T13:54:22,42.805,6.029,CST-1368DR,4311,4724,11634,01.177,551
2023-04-30T13:57:23,42.805,6.029,CST-1368DR,4311,4726,11639,01.176,551
2023-04-30T14:00:25,42.805,6.029,CST-1368DR,4311,4727,11642,01.175,552
2023-04-30T14:03:26,42.805,6.029,CST-1368DR,4311,4718,11620,01.182,551
2023-04-30T14:06:28,42.805,6.029,CST-1368DR,4311,4724,11635,01.177,551
2023-04-30T14:09:29,42.805,6.029,CST-1368DR,4311,4726,11639,01.176,551
2023-04-30T14:12:31,42.805,6.029,CST-1368DR,4311,4724,11635,01.177,552
2023-04-30T14:15:33,42.805,6.029,CST-1368DR,4311,4725,11638,01.176,551
2023-04-30T14:18:34,42.805,6.029,CST-1368DR,4311,4723,11631,01.178,552
2023-04-30T14:21:36,42.805,6.029,CST-1368DR,4311,4723,11632,01.178,552
2023-04-30T14:24:37,42.805,6.029,CST-1368DR,4311,4724,11634,01.177,551
2023-04-30T14:27:39,42.805,6.029,CST-1368DR,4311,4723,11631,01.178,551
2023-04-30T14:30:41,42.805,6.029,CST-1368DR,4311,4724,11634,01.177,552
2023-04-30T14:33:43,42.805,6.029,CST-1368DR,4311,4724,11635,01.177,552
2023-04-30T14:36:44,42.805,6.029,CST-1368DR,4311,4725,11638,01.176,551
2023-04-30T14:39:46,42.805,6.029,CST-1368DR,4311,4726,11639,01.176,551
2023-04-30T14:42:47,42.805,6.029,CST-1368DR,4311,4722,11631,01.178,551
2023-04-30T14:45:49,42.805,6.029,CST-1368DR,4311,4723,11632,01.178,551
2023-04-30T14:48:50,42.805,6.029,CST-1368DR,4311,4725,11637,01.176,551
2023-04-30T14:51:52,42.805,6.029,CST-1368DR,4311,4725,11638,01.176,552
2023-04-30T14:54:54,42.805,6.029,CST-1368DR,4311,4725,11637,01.176,552
2023-04-30T14:57:55,42.805,6.029,CST-1368DR,4311,4725,11636,01.177,551
2023-04-30T15:00:57,42.805,6.029,CST-1368DR,4311,4725,11636,01.177,552
2023-04-30T15:03:58,42.805,6.029,CST-1368DR,4311,4724,11634,01.177,551
2023-04-30T15:07:00,42.805,6.029,CST-1368DR,4311,4726,11639,01.176,551
2023-04-30T15:10:02,42.805,6.029,CST-1368DR,4311,4731,11651,01.172,551
2023-04-30T15:13:03,42.805,6.029,CST-1368DR,4311,4723,11633,01.178,552
2023-04-30T15:16:05,42.805,6.029,CST-1368DR,4311,4725,11638,01.176,552
2023-04-30T15:19:06,42.805,6.029,CST-1368DR,4311,4725,11638,01.176,551
2023-04-30T15:22:08,42.805,6.029,CST-1368DR,4311,4721,11627,01.180,552
2023-04-30T15:25:09,42.805,6.029,CST-1368DR,4311,4724,11634,01.177,551
2023-04-30T15:28:11,42.805,6.029,CST-1368DR,4311,4725,11636,01.177,551
2023-04-30T15:31:13,42.805,6.029,CST-1368DR,4311,4724,11634,01.177,551
2023-04-30T15:34:14,42.805,6.029,CST-1368DR,4311,4723,11631,01.178,551
2023-04-30T15:37:16,42.805,6.029,CST-1368DR,4311,4724,11634,01.177,551
2023-04-30T15:40:17,42.805,6.029,CST-1368DR,4311,4720,11626,01.180,551
2023-04-30T15:43:19,42.805,6.029,CST-1368DR,4311,4725,11638,01.176,552
2023-04-30T15:46:20,42.805,6.029,CST-1368DR,4311,4724,11635,01.177,552
2023-04-30T15:49:22,42.805,6.029,CST-1368DR,4311,4724,11634,01.177,552
2023-04-30T15:52:24,42.805,6.029,CST-1368DR,4311,4724,11634,01.177,551
2023-04-30T15:55:25,42.805,6.029,CST-1368DR,4311,4723,11633,01.178,552
2023-04-30T15:58:27,42.805,6.029,CST-1368DR,4311,4722,11630,01.179,551
2023-04-30T16:01:28,42.805,6.029,CST-1368DR,4311,4723,11632,01.178,551
2023-04-30T16:04:30,42.805,6.029,CST-1368DR,4311,4721,11628,01.180,551
2023-04-30T16:07:31,42.805,6.029,CST-1368DR,4311,4725,11636,01.177,552
2023-04-30T16:10:33,42.805,6.029,CST-1368DR,4311,4724,11634,01.177,552
2023-04-30T16:13:35,42.805,6.029,CST-1368DR,4311,4723,11633,01.178,551
2023-04-30T16:16:36,42.805,6.029,CST-1368DR,4311,4723,11633,01.178,552
2023-04-30T16:19:38,42.805,6.029,CST-1368DR,4311,4724,11634,01.177,552
2023-04-30T16:22:39,42.805,6.029,CST-1368DR,4311,4725,11636,01.177,551
2023-04-30T16:25:41,42.805,6.029,CST-1368DR,4311,4727,11642,01.175,552
2023-04-30T16:28:43,42.805,6.029,CST-1368DR,4311,4721,11628,01.180,552
2023-04-30T16:31:44,42.805,6.029,CST-1368DR,4311,4724,11635,01.177,552
2023-04-30T16:34:46,42.805,6.029,CST-1368DR,4311,4725,11638,01.176,551
2023-04-30T16:37:47,42.805,6.029,CST-1368DR,4311,4725,11636,01.177,552